Mason City, IA

10:59 AM CDT on August 17, 2017 (GMT -0500)
Mason City Municipal

Weather History for KMCW - November, 2011

Change the Weather History Date:

Monday, November 28, 2011

  Actual Average Record
Temperature  
Mean Temperature 31 °F 26 °F  
Max Temperature 37 °F 35 °F 63 °F (2006)
Min Temperature 25 °F 18 °F -14 °F (1897)
Degree Days  
Heating Degree Days 34 39  
Month to date heating degree days 742 863  
Since 1 July heating degree days 1380 1601  
Cooling Degree Days 0 0  
Month to date cooling degree days 0 0  
Year to date cooling degree days 789 616  
Moisture  
Dew Point 25 °F    
Average Humidity 81    
Maximum Humidity 92    
Minimum Humidity 70    
Precipitation  
Precipitation 0.00 in 0.06 in 1.11 in (1987)
Month to date precipitation 0.34 1.78  
Year to date precipitation 21.13 33.86  
Snow  
Snow 0.00 in 0.20 in 4.20 in (1983)
Month to date snowfall 0.0 3.8  
Since 1 July snowfall 0.0 4.2  
Since 1 September snowfall 0.0 4.2  
Snow Depth 0.00 in    
Sea Level Pressure  
Sea Level Pressure 30.15 in    
Wind  
Wind Speed 8 mph (SW)    
Max Wind Speed 18 mph    
Max Gust Speed 23 mph    
Visibility 10 miles    
Events      
T = Trace of Precipitation, MM = Missing Value Source: NWS Daily Summary

Daily Weather History Graph

Daily Weather History Graph

Search for Another Location

Airport or City:

Trip Planner

Search our weather history database for the weather conditions in past years. The results will help you decide how hot, cold, wet, or windy it might be!

Date:

Astronomy

Nov. 28, 2011 Rise Set
Actual Time 7:21 AM CST 4:40 PM CST
Civil Twilight 6:50 AM CST 5:12 PM CST
Nautical Twilight 6:14 AM CST 5:47 PM CST
Astronomical Twilight 5:40 AM CST 6:21 PM CST
Moon 10:30 AM CST (11/28) 8:29 PM CST (11/28)
Length of Visible Light 10h 22m
Length of Day
9h 18m
Waxing Crescent, 16% of the Moon is Illuminated
Nov 28
Waxing Crescent
Dec 2
First Quarter
Dec 10
Full
Dec 17
Last Quarter
Dec 24
New

Hourly Weather History & Observations

Time (CST) Temp. Windchill Dew Point Humidity Pressure Visibility Wind Dir Wind Speed Gust Speed Precip Events Conditions
12:04 AM 28.4 °F - 23.0 °F 80% 30.19 in 10.0 mi Calm Calm - N/A   Overcast
12:53 AM 28.9 °F - 23.0 °F 78% 30.21 in 10.0 mi Calm Calm - N/A   Overcast
1:53 AM 28.0 °F - 24.1 °F 85% 30.20 in 10.0 mi Calm Calm - N/A   Overcast
2:53 AM 28.0 °F 22.8 °F 23.0 °F 81% 30.19 in 10.0 mi SSE 4.6 mph - N/A   Overcast
3:53 AM 28.0 °F 24.2 °F 24.1 °F 85% 30.19 in 10.0 mi South 3.5 mph - N/A   Overcast
4:53 AM 27.0 °F 19.5 °F 23.0 °F 85% 30.18 in 10.0 mi South 6.9 mph - N/A   Overcast
5:53 AM 27.0 °F 20.5 °F 23.0 °F 85% 30.19 in 10.0 mi WSW 5.8 mph - N/A   Overcast
6:25 AM 26.6 °F 20.0 °F 23.0 °F 86% 30.16 in 10.0 mi SW 5.8 mph - N/A   Overcast
6:53 AM 26.1 °F 16.8 °F 23.0 °F 88% 30.17 in 10.0 mi South 9.2 mph - N/A   Overcast
7:53 AM 26.1 °F 16.8 °F 24.1 °F 92% 30.17 in 10.0 mi SSE 9.2 mph - N/A   Overcast
8:53 AM 27.0 °F 16.7 °F 24.1 °F 89% 30.19 in 10.0 mi South 11.5 mph - N/A   Overcast
9:53 AM 28.0 °F 18.1 °F 24.1 °F 85% 30.19 in 10.0 mi SSE 11.5 mph - N/A   Overcast
10:53 AM 28.9 °F 19.2 °F 25.0 °F 85% 30.17 in 10.0 mi South 11.5 mph 17.3 mph N/A   Overcast
11:53 AM 30.9 °F 21.7 °F 25.0 °F 79% 30.15 in 10.0 mi SW 11.5 mph - N/A   Overcast
12:53 PM 33.1 °F 26.1 °F 26.1 °F 75% 30.14 in 10.0 mi SSW 8.1 mph - N/A   Overcast
1:18 PM 33.8 °F 25.8 °F 26.6 °F 75% 30.09 in 10.0 mi SW 10.4 mph - N/A   Scattered Clouds
1:53 PM 35.1 °F 29.3 °F 26.1 °F 70% 30.11 in 10.0 mi SSW 6.9 mph - N/A   Clear
2:53 PM 36.0 °F 29.6 °F 26.1 °F 67% 30.10 in 10.0 mi SW 8.1 mph - N/A   Clear
3:53 PM 36.0 °F 30.3 °F 26.1 °F 67% 30.11 in 7.0 mi SW 6.9 mph - N/A   Clear
4:53 PM 30.9 °F 24.3 °F 25.0 °F 79% 30.12 in 10.0 mi West 6.9 mph - N/A   Clear
5:53 PM 28.4 °F 23.3 °F 24.8 °F 86% 30.10 in 9.0 mi WNW 4.6 mph - N/A   Clear
6:53 PM 28.4 °F - 24.8 °F 86% 30.09 in 9.0 mi Calm Calm - N/A   Clear
7:53 PM 27.0 °F 21.6 °F 24.1 °F 89% 30.12 in 9.0 mi NW 4.6 mph - N/A   Clear
8:53 PM 26.1 °F 19.4 °F 23.0 °F 88% 30.14 in 9.0 mi NNW 5.8 mph - N/A   Clear
9:53 PM 34.0 °F 23.8 °F 27.0 °F 75% 30.14 in 10.0 mi North 16.1 mph - N/A   Clear
10:53 PM 35.1 °F 25.9 °F 27.0 °F 72% 30.16 in 10.0 mi North 13.8 mph - N/A   Clear
11:53 PM 34.0 °F 23.4 °F 27.0 °F 75% 30.17 in 10.0 mi North 17.3 mph - N/A   Clear